EW2769 Weather Reports


time (UTC)temp
C
wind
direction
speed
KPH
gust
KPH
rain 1hr
cm
rain 24hr
cm
rain mn
cm
humidity
%
barometer
mb
20260505183047 23 251 9.7 25.7 0.00 0.00 0.00 43 999.4
20260505183023 21 144 3.2 24.1 0.00 0.03 0.00 48 999.5
20260505181536 22 231 9.7 27.4 0.00 0.00 0.00 44 999.7
20260505181521 21 23 3.2 22.5 0.00 0.03 0.00 47 999.6
20260505180040 22 241 11.3 22.5 0.00 0.00 0.00 45 1000.0
20260505180014 21 267 8.0 29.0 0.00 0.08 0.00 49 999.9
20260505174529 22 287 6.4 30.6 0.00 0.00 0.00 46 1000.2
20260505174512 21 201 4.8 29.0 0.00 0.08 0.00 49 1000.4
20260505173055 21 226 16.1 45.1 0.00 0.08 0.00 47 1000.7
20260505173027 22 220 4.8 16.1 0.00 0.13 0.00 46 1000.5
20260505171550 21 244 14.5 30.6 0.00 0.08 0.00 48 1001.0
20260505171521 22 291 3.2 24.1 0.00 0.13 0.00 49 1000.9
20260505170031 20 311 8.0 22.5 0.00 0.18 0.00 53 1001.6
20260505170021 21 232 6.4 22.5 0.00 0.13 0.00 49 1001.3
20260505164527 20 260 4.8 32.2 0.00 0.18 0.00 53 1001.9
20260505164514 21 189 3.2 14.5 0.00 0.13 0.00 50 1001.9
20260505163015 20 186 1.6 19.3 0.00 0.23 0.00 52 1002.0
20260505163010 20 198 4.8 25.7 0.00 0.18 0.00 54 1002.3
20260505161554 20 261 8.0 29.0 0.00 0.23 0.00 52 1002.5
20260505161519 19 203 9.7 30.6 0.00 0.18 0.00 56 1002.4
20260505153058 17 254 0.0 16.1 0.00 0.43 0.00 61 1003.5
20260505153028 18 285 0.0 9.7 0.00 0.46 0.00 56 1003.2
20260505151555 16 252 6.4 20.9 0.00 0.43 0.00 62 1003.7
20260505151523 17 214 4.8 16.1 0.00 0.46 0.00 56 1003.6
20260505150105 16 277 8.0 27.4 0.00 0.71 0.00 62 1004.1
20260505124524 -17 0.0 0.0 0.00 0.71 0.00 1004.6
20260505124518 10 16 0.0 1.6 0.00 0.46 0.46 100 1004.4
20260505123011 8 104 0.0 3.2 0.00 0.46 0.46 100 1004.6
20260505123000 -17 0.0 0.0 0.00 0.71 0.00 1004.4
20260505121559 -17 0.0 0.0 0.00 0.71 0.00 1004.3
20260505121522 7 22 0.0 0.0 0.00 0.46 0.46 100 1004.7
20260505120036 -17 0.0 0.0 0.00 0.71 0.00 1004.5
20260505120004 6 335 0.0 0.0 0.00 0.46 0.46 100 1004.7
20260505114600 5 335 0.0 0.0 0.00 0.46 0.46 100 1005.0
20260505114530 -17 0.0 0.0 0.00 0.71 0.00 1004.5
20260505113059 5 335 0.0 0.0 0.00 0.46 0.46 100 1005.1
20260505113012 -17 0.0 0.0 0.00 0.71 0.00 1004.7
20260505111545 3 335 0.0 3.2 0.00 0.46 0.46 100 1005.3
20260505111505 -17 0.0 0.0 0.00 0.71 0.00 1004.7
20260505101551 -17 0.0 0.0 0.00 0.71 0.00 1004.9
20260505101523 1 39 0.0 0.0 0.00 0.46 0.46 100 1005.4
20260505100045 -17 0.0 0.0 0.00 0.71 0.00 1004.9
20260505100031 1 39 0.0 0.0 0.00 0.46 0.46 100 1005.6
20260505094540 -17 0.0 0.0 0.00 0.71 0.00 1004.9
20260505094514 1 169 0.0 0.0 0.00 0.46 0.46 100 1005.4
20260505093022 0 168 0.0 0.0 0.00 0.46 0.46 100 1005.4
20260505093020 -17 0.0 0.0 0.00 0.71 0.00 1004.8
20260505091611 0 284 0.0 0.0 0.00 0.46 0.46 100 1005.6
20260505091517 -17 0.0 0.0 0.00 0.71 0.00 1004.8
20260505090056 0 283 0.0 0.0 0.00 0.46 0.46 100 1005.5
20260505090028 -17 0.0 0.0 0.00 0.71 0.00 1005.0
20260505084527 1 283 0.0 0.0 0.00 0.46 0.46 100 1005.7
20260505084507 -17 0.0 0.0 0.00 0.71 0.00 1005.0
20260505083033 1 283 0.0 0.0 0.00 0.46 0.46 100 1005.8
20260505083004 -17 0.0 0.0 0.00 0.71 0.00 1005.1
20260505081601 -17 0.0 0.0 0.00 0.71 0.00 1005.2
20260505081518 1 283 0.0 0.0 0.00 0.46 0.46 100 1005.9
20260505080054 -17 0.0 0.0 0.00 0.71 0.00 1005.1
20260505080014 1 283 0.0 0.0 0.00 0.46 0.46 100 1005.9
20260505074550 -17 0.0 0.0 0.00 0.71 0.00 1005.2
20260505074511 1 283 0.0 0.0 0.00 0.46 0.46 100 1005.9
20260505073046 -17 0.0 0.0 0.00 0.71 0.00 1005.2
20260505073005 1 284 0.0 0.0 0.00 0.46 0.46 100 1005.8
20260505071547 -17 0.0 0.0 0.00 0.71 0.00 1005.2
20260505071501 1 283 0.0 0.0 0.00 0.46 0.46 100 1005.8
20260505070059 2 283 0.0 0.0 0.00 0.46 0.46 100 1005.9
20260505070036 -17 0.0 0.0 0.00 0.71 0.00 1005.2
20260505064559 2 283 0.0 0.0 0.00 0.46 0.46 100 1005.7
20260505064534 -17 0.0 0.0 0.00 0.71 0.00 1005.1
20260505063046 2 283 0.0 0.0 0.00 0.46 0.46 100 1005.7
20260505063027 -17 0.0 0.0 0.00 0.71 0.00 1005.1
20260505061538 2 283 0.0 0.0 0.00 0.46 0.46 100 1005.8
20260505061522 -17 0.0 0.0 0.00 0.71 0.00 1005.3
20260505060031 2 283 0.0 0.0 0.00 0.46 0.46 100 1005.8
20260505060021 -17 0.0 0.0 0.00 0.71 0.00 1005.3
20260505054535 2 283 0.0 0.0 0.00 0.46 0.46 100 1005.8
20260505054514 -17 0.0 0.0 0.00 0.71 0.00 1005.4
20260505053056 -17 0.0 0.0 0.00 0.71 0.00 1005.5
20260505053020 2 283 0.0 0.0 0.00 0.46 0.46 100 1005.8
20260505051551 -17 0.0 0.0 0.00 0.71 0.00 1005.6
20260505051531 2 283 0.0 0.0 0.00 0.46 0.46 100 1005.8
20260505041549 3 283 0.0 0.0 0.00 0.46 0.46 100 1005.7
20260505041534 -17 0.0 0.0 0.00 0.71 0.00 1005.7
20260505040031 -17 0.0 0.0 0.00 0.71 0.71 1005.6
20260505040027 4 284 0.0 0.0 0.00 0.46 0.46 100 1005.8
20260505034525 -17 0.0 0.0 0.00 0.71 0.71 1005.8
20260505034521 4 283 0.0 0.0 0.00 0.46 0.46 100 1005.8
20260505033031 -17 0.0 0.0 0.00 0.71 0.71 1005.8
20260505033017 4 283 0.0 0.0 0.00 0.46 0.46 100 1005.9
20260505031524 4 283 0.0 0.0 0.00 0.46 0.46 100 1005.9
20260505031517 -17 0.0 0.0 0.00 0.71 0.71 1005.8
20260505030012 -17 0.0 0.0 0.00 0.71 0.71 1005.9
20260505030009 5 283 0.0 0.0 0.00 0.46 0.46 100 1005.9
20260505024507 -17 0.0 0.0 0.00 0.71 0.71 1005.9
20260505024503 5 283 0.0 0.0 0.00 0.46 0.46 100 1006.0
20260505023111 5 284 0.0 0.0 0.00 0.46 0.46 100 1006.1
20260505023003 -17 0.0 0.0 0.00 0.71 0.71 1005.9
20260505021600 -17 0.0 0.0 0.00 0.71 0.71 1006.1
20260505021558 5 284 0.0 0.0 0.00 0.46 0.46 100 1005.9
20260505020054 -17 0.0 0.0 0.00 0.71 0.71 1006.2
20260505020048 5 284 0.0 0.0 0.00 0.46 0.46 100 1006.0
20260505014555 -17 0.0 0.0 0.00 0.71 0.71 1006.2
20260505014529 5 284 0.0 0.0 0.00 0.46 0.46 100 1006.2
20260505013032 -17 0.0 0.0 0.00 0.71 0.71 1006.3
20260505013013 6 283 0.0 0.0 0.00 0.46 0.46 100 1006.0
20260505011524 -17 0.0 0.0 0.00 0.71 0.71 1006.3
20260505011513 6 283 0.0 0.0 0.00 0.46 0.46 100 1005.9
20260505010021 -17 0.0 0.0 0.00 0.71 0.71 1006.2
20260505010012 7 283 0.0 0.0 0.00 0.46 0.46 100 1005.7
20260505004518 -17 0.0 0.0 0.00 0.71 0.71 1006.0
20260505004502 7 284 0.0 0.0 0.00 0.46 0.46 100 1005.5
20260505003104 7 283 0.0 0.0 0.00 0.46 0.46 100 1005.4
20260505003012 -17 0.0 0.0 0.00 0.71 0.71 1005.9
20260505001553 8 283 0.0 0.0 0.00 0.46 0.46 9 1005.3
20260505001509 -17 0.0 0.0 0.00 0.71 0.71 1005.5
20260505000053 9 283 0.0 0.0 0.00 0.46 0.46 20 1005.0
20260505000008 -17 0.0 0.0 0.00 0.71 0.71 1005.4
20260504234545 -17 0.0 0.0 0.00 0.71 0.71 1005.2
20260504234543 10 283 0.0 0.0 0.00 0.46 0.46 31 1004.8
20260504233040 -17 0.0 0.0 0.00 0.71 0.71 1005.0
20260504233027 10 283 0.0 0.0 0.00 0.46 0.46 35 1004.7
20260504231523 10 284 0.0 0.0 0.00 0.46 0.46 34 1004.4
20260504231516 -17 0.0 0.0 0.00 0.71 0.71 1004.7
20260504230018 10 284 0.0 0.0 0.00 0.46 0.46 34 1004.4
20260504230014 7 258 4.8 11.3 0.00 0.71 0.71 97 1004.8
20260504224555 7 275 6.4 9.7 0.00 0.71 0.71 97 1004.8
20260504224522 10 285 0.0 8.0 0.00 0.46 0.46 27 1004.5
20260504223054 7 261 6.4 12.9 0.00 0.71 0.71 98 1004.6
20260504223010 10 261 0.0 12.9 0.00 0.46 0.46 32 1004.4
20260504221536 7 237 6.4 12.9 0.00 0.71 0.71 98 1004.8
20260504221505 10 296 4.8 17.7 0.00 0.46 0.46 31 1004.3
20260504220035 6 261 8.0 17.7 0.00 0.71 0.71 98 1004.8
20260504220002 10 352 8.0 27.4 0.00 0.46 0.46 32 1004.1
20260504214558 10 337 12.9 25.7 0.00 0.46 0.46 32 1004.1
20260504214525 6 270 6.4 14.5 0.00 0.71 0.71 98 1004.7
20260504213035 10 328 8.0 25.7 0.00 0.46 0.46 27 1004.0
20260504213022 6 270 11.3 20.9 0.00 0.71 0.71 98 1004.8
20260504211532 10 347 14.5 27.4 0.00 0.46 0.46 28 1004.1
20260504211519 6 262 8.0 16.1 0.00 0.71 0.71 98 1004.7
20260504210032 6 293 6.4 19.3 0.00 0.71 0.71 98 1004.6
20260504210019 10 17 12.9 24.1 0.00 0.46 0.46 24 1003.9
20260504204529 6 277 9.7 22.5 0.00 0.71 0.71 98 1004.6
20260504204512 10 305 6.4 25.7 0.00 0.46 0.46 18 1004.0
20260504203023 5 275 9.7 24.1 0.03 0.71 0.71 98 1004.7
20260504203006 10 304 11.3 29.0 0.00 0.46 0.46 17 1003.9
20260504201516 5 275 11.3 22.5 0.03 0.71 0.71 98 1004.6
20260504201502 10 282 11.3 38.6 0.00 0.46 0.46 11 1003.7
20260504200104 10 326 14.5 38.6 0.00 0.46 0.46 100 1003.7
20260504200015 5 254 12.9 30.6 0.03 0.71 0.71 98 1004.4
20260504194559 5 257 9.7 22.5 0.03 0.71 0.71 98 1004.3
20260504194554 8 328 16.1 35.4 0.00 0.46 0.46 100 1003.9
20260504193100 5 289 9.7 20.9 0.00 0.69 0.69 98 1004.2
20260504193050 8 294 17.7 30.6 0.00 0.46 0.46 100 1003.7
20260504191604 5 263 9.7 20.9 0.00 0.69 0.69 98 1004.1
20260504191559 7 339 12.9 41.8 0.00 0.46 0.46 100 1003.7
20260504190058 5 283 9.7 20.9 0.00 0.69 0.69 98 1004.0
20260504190029 7 315 8.0 19.3 0.00 0.46 0.46 100 1003.7
20260504184602 5 277 9.7 19.3 0.03 0.69 0.69 98 1004.1
20260504184533 7 301 3.2 12.9 0.00 0.46 0.46 100 1003.9